#timestamp,LO_Frequency,Hit,StdDev 
1547002815.4,286047002.3,N
1547002835.2,286047002.2,N
1547002855.0,286047004.0,N
1547002855.9,286047004.0,N
1547002875.8,286047002.7,N
1547002895.6,286047000.7,N
1547002915.5,286047000.9,N
1547002935.3,286047002.5,N
1547002955.1,286047002.5,N
1547002975.9,286047002.3,N
1547002995.7,286047003.8,N
1547003015.5,286047002.9,N
1547003035.4,286047003.5,N
1547003055.2,286047003.2,N
1547003075.1,286047004.0,N
1547003076.0,286047004.0,N
1547003095.8,286047003.4,N
1547003115.6,286047006.0,N
1547003135.5,286047002.9,N
1547003155.3,286047002.9,N
1547003175.2,286047004.3,N
1547003195.9,286047005.8,Y
1547003215.7,286047001.6,P
1547003235.6,286047002.6,P
1547003255.4,286047002.3,P
1547003275.2,286046999.9,N
1547003295.1,286046999.8,N
1547003296.0,286046999.8,N
1547003315.8,286047000.8,N
1547003335.7,286047000.0,N
1547003355.5,286047000.2,N
1547003375.3,286047001.3,N
1547003395.2,286047004.0,Y
1547003415.0,286047001.9,P
1547003415.9,286047001.9,P
1547003435.8,286046999.9,N
1547003455.6,286046998.3,N
1547003475.4,286047002.2,N
1547003495.3,286047000.1,N
1547003515.1,286047002.6,N
1547003535.8,286047002.5,N
1547003555.7,286047002.5,N
1547003575.5,286046999.9,N
1547003595.4,286047003.9,N
1547003615.2,286047003.8,N
1547003635.0,286047004.2,N
1547003635.9,286047004.2,N
1547003655.8,286047004.9,N
1547003675.6,286047003.1,N
1547003695.4,286047003.1,N
1547003715.3,286047001.8,N
1547003735.1,286047001.6,N
1547003755.9,286047000.3,N
1547003775.7,286047000.1,N
1547003795.5,286047000.0,N
1547003815.4,286047000.8,N
1547003835.2,286046999.8,N
1547003855.0,286046999.7,N
1547003855.9,286046999.7,N
1547003875.8,286047000.8,N
1547003895.6,286047000.8,N
1547003915.5,286047000.7,N
1547003935.3,286046998.5,N
1547003955.1,286047000.5,N
1547003975.9,286047000.4,N
1547003995.7,286047000.7,N
1547004015.5,286047000.3,N
1547004035.4,286046998.3,N
1547004055.2,286046998.3,N
1547004075.1,286046998.6,N
1547004076.0,286046998.6,N
1547004095.8,286046999.7,N
1547004115.6,286047000.8,N
1547004135.5,286046998.7,N
1547004155.3,286046998.1,N
1547004175.1,286046998.6,N
1547004195.9,286047000.2,N
1547004215.7,286047000.8,N
1547004235.6,286046998.6,N
1547004255.4,286046999.3,N
1547004275.2,286046999.2,N
1547004295.1,286046998.4,N
1547004296.0,286046998.4,N
1547004315.8,286046999.2,N
1547004335.6,286047000.4,N
1547004355.5,286047001.1,N
1547004375.3,286046998.1,N
1547004395.2,286047000.9,N
1547004415.9,286046999.4,N
1547004435.7,286046998.9,N
1547004455.6,286046997.5,N
1547004475.4,286046999.6,N
1547004495.2,286047000.4,N
1547004515.1,286046999.8,N
1547004516.0,286046999.8,N
1547004535.8,286047002.2,N
1547004555.7,286046999.7,N
1547004575.5,286047000.7,N
1547004595.3,286047002.3,N
1547004615.2,286047000.7,N
1547004635.0,286046998.3,N
1547004635.9,286046998.3,N
1547004655.7,286046999.3,N
1547004675.6,286046998.7,N
1547004695.4,286047001.2,N
1547004715.3,286046999.8,N
1547004735.1,286047000.3,N
1547004736.0,286047000.3,N
1547004755.8,286047000.9,N
1547004775.7,286047000.2,N
1547004795.5,286046998.2,N
1547004815.3,286046998.8,N
1547004835.2,286047001.1,N
1547004855.0,286047000.9,N
1547004855.9,286047000.9,N
1547004875.8,286046999.3,N
1547004895.6,286046998.5,N
1547004915.4,286047000.7,N
1547004935.3,286046999.3,N
1547004955.1,286046999.2,N
1547004975.9,286046998.8,N
1547004995.7,286046996.5,Y
1547005015.5,286047000.6,P
1547005035.4,286046998.6,P
1547005055.2,286046999.5,N
1547005075.0,286047000.7,N
1547005075.9,286047000.7,N
1547005095.8,286046998.4,N
1547005115.6,286046998.1,N
1547005135.5,286046999.6,N
1547005155.3,286046996.8,Y
1547005175.1,286046999.3,P
1547005195.9,286046998.1,P
1547005215.7,286046999.3,N
1547005235.5,286046998.2,Y
1547005255.4,286047001.0,P
1547005275.2,286047001.2,N
1547005295.1,286047001.2,N
1547005296.0,286047001.2,N
1547005315.8,286046999.8,N
1547005335.6,286047000.5,N
1547005355.5,286047000.0,N
1547005375.3,286047000.4,N
1547005395.1,286047002.7,Y
1547005415.9,286047000.5,P
1547005435.7,286047001.2,P
1547005455.6,286046998.6,P
1547005475.4,286046998.7,N
1547005495.2,286047000.8,N
1547005515.1,286046999.5,N
1547005516.0,286046999.5,N
1547005535.8,286046998.8,N
1547005555.6,286046997.4,N
1547005575.5,286046999.3,N
1547005595.3,286046996.7,Y
1547005615.2,286046996.5,P
1547005635.9,286046996.9,N
1547005655.7,286046997.5,N
1547005675.6,286046998.2,N
1547005695.4,286047000.3,N
1547005715.2,286047000.4,N
1547005735.1,286046999.0,N
1547005736.0,286046999.0,N
1547005755.8,286046999.8,N
1547005775.7,286047001.0,N
1547005795.5,286046999.9,N
1547005815.3,286047001.1,N
1547005835.2,286046998.8,N
1547005855.0,286046997.1,N
1547005855.9,286046997.1,N
1547005875.7,286046996.1,N
1547005895.6,286046995.5,N
1547005915.4,286046996.8,N
1547005935.3,286046997.4,N
1547005955.1,286046995.1,N
1547005956.0,286046995.1,N
1547005975.8,286046995.4,N
1547005995.7,286046997.5,N
1547006015.5,286046997.0,N
1547006035.3,286046999.2,N
1547006055.2,286046998.8,N
1547006075.0,286047011.9,Y
1547006075.9,286046999.4,P
1547006095.8,286047000.4,N
1547006115.6,286046998.1,N
1547006135.4,286046999.6,N
1547006155.3,286046997.1,Y
1547006175.1,286046999.1,P
1547006195.9,286046998.6,P
1547006215.7,286046996.5,P
1547006235.5,286046996.6,Y
1547006255.4,286046998.2,P
1547006275.2,286046998.1,P
1547006295.0,286046998.5,P
1547006295.9,286046998.5,Y
1547006315.8,286047002.0,P
1547006335.6,286047003.9,N
1547006355.5,286047003.6,N
1547006375.3,286047001.6,N
1547006395.1,286047001.5,N
